Location: Saint Mary
(48.7436°N, 113.4291°W)
Time: 21:11:40
(UTC+00:00)

X-37B - Visible Passes

Search period start: 03 October 2023 00:00
Search period end: 13 October 2023 00:00
Orbit: 277 x 277 km, 45.0° (Epoch: 01 November)

Date Brightness Start Highest point End Pass type
(mag) Time Alt. Az. Time Alt. Az. Time Alt. Az.
09 Oct 2.5 02:35:08 10° SSW 02:35:45 13° SSW 02:35:45 13° SSW visible
10 Oct 2.1 02:35:23 10° SW 02:36:31 18° SSW 02:36:31 18° SSW visible
11 Oct 1.8 02:35:47 10° SW 02:37:13 23° SSW 02:37:13 23° SSW visible
12 Oct 1.7 02:36:19 10° WSW 02:37:51 26° SSW 02:37:51 26° SSW visible
